Location: Cheyres
(46.8153°N, 6.7877°E)
Time: 15:30:37
(UTC+00:00)

Cosmos 990 Rocket - Pass Details

Date: 25 September 2021
Orbit: 746 x 769 km, 74.0° (Epoch: 24 October)

Event Time Altitude Azimuth Distance (km) Brightness Sun altitude
Rises 04:28:58 0° 345° (NNW) 3,238 7.2 -10.1°
Reaches altitude 10° 04:31:47 10° 360° (N) 2,311 6.6 -9.7°
Maximum altitude 04:36:02 24° 54° (NE) 1,541 6.4 -9.0°
Drops below altitude 10° 04:40:17 10° 108° (ESE) 2,309 7.7 -8.2°
Sets 04:43:05 0° 122° (ESE) 3,233 8.1 -7.8°
